This is the latest recevied weather packets stored in our database for station/object W4UWO. If no packets are shown the sender has not sent any weather packets the latest 10 day(s).
| Time | Temp. | Humidity | Pressure | Rain* | Wind** | Luminosity | Snow |
|---|---|---|---|---|---|---|---|
| 1787962993 | 28.89° C | 48% | 1018.2 hPa | 0 mm | - | 3 W/m² | - |
| 1787962688 | 29.44° C | 47% | 1018.2 hPa | 0 mm | - | 5 W/m² | - |
| 1787962382 | 30° C | 46% | 1018.2 hPa | 0 mm | - | 12 W/m² | - |
| 1787962076 | 30° C | 45% | 1018.2 hPa | 0 mm | - | 17 W/m² | - |
| 1787961776 | 30.56° C | 45% | 1018 hPa | 0 mm | - | 23 W/m² | - |
| 1787961475 | 30.56° C | 44% | 1018.1 hPa | 0 mm | - | 31 W/m² | - |
| 1787961174 | 30.56° C | 44% | 1018.1 hPa | 0 mm | - | 38 W/m² | - |
| 1787960874 | 31.11° C | 43% | 1018.1 hPa | 0 mm | - | 43 W/m² | - |
| 1787960569 | 31.11° C | 42% | 1018 hPa | 0 mm | - | 49 W/m² | - |
| 1787960267 | 31.11° C | 41% | 1018.1 hPa | 0 mm | - | 61 W/m² | - |
| 1787959967 | 31.67° C | 41% | 1017.9 hPa | 0 mm | - | 74 W/m² | - |
| 1787959662 | 31.67° C | 41% | 1018 hPa | 0 mm | - | 76 W/m² | - |
| 1787959372 | 31.11° C | 41% | 1018 hPa | 0 mm | - | 84 W/m² | - |
| 1787959057 | 31.67° C | 41% | 1017.9 hPa | 0 mm | - | 94 W/m² | - |
| 1787958752 | 31.67° C | 40% | 1017.8 hPa | 0 mm | - | 104 W/m² | - |
| 1787958448 | 32.22° C | 40% | 1017.8 hPa | 0 mm | - | 113 W/m² | - |
| 1787958144 | 32.22° C | 41% | 1017.7 hPa | 0 mm | - | 123 W/m² | - |
| 1787957842 | 32.22° C | 41% | 1017.7 hPa | 0 mm | - | 136 W/m² | - |
| 1787957537 | 32.22° C | 39% | 1017.7 hPa | 0 mm | - | 151 W/m² | - |
| 1787957232 | 32.22° C | 40% | 1017.7 hPa | 0 mm | - | 170 W/m² | - |
| 1787956927 | 32.22° C | 39% | 1017.7 hPa | 0 mm | - | 185 W/m² | - |
| 1787956627 | 32.22° C | 38% | 1017.8 hPa | 0 mm | - | 200 W/m² | - |
| 1787956321 | 32.78° C | 37% | 1017.8 hPa | 0 mm | - | 214 W/m² | - |
| 1787956017 | 33.33° C | 37% | 1017.9 hPa | 0 mm | - | 236 W/m² | - |
| 1787955712 | 32.78° C | 36% | 1017.9 hPa | 0 mm | - | 257 W/m² | - |
* Rain latest hour (hover to see other rain measurements)
** Current wind speed in m/s (hover to see current wind gust speed)